N1DNE Weather Reports


time (UTC)temp
F
wind
direction
speed
knots
gust
knots
rain 1hr
in
rain 24hr
in
rain mn
in
humidity
%
barometer
mb
20260510191620 70 250 0.9 6.1 0.00 0.40 0.00 67 1009.8
20260510190620 70 174 0.9 4.3 0.00 0.43 0.00 70 1009.8
20260510185620 70 173 1.7 5.2 0.00 0.45 0.00 69 1009.9
20260510184621 69 173 0.9 6.1 0.00 0.48 0.00 72 1009.9
20260510183619 68 171 0.9 6.1 0.00 0.48 0.00 75 1010.0
20260510182620 68 182 0.9 6.1 0.00 0.48 0.00 74 1010.1
20260510181620 68 169 2.6 7.8 0.00 0.48 0.00 73 1010.0
20260510180621 68 186 0.9 5.2 0.00 0.48 0.00 75 1010.0
20260510175614 68 175 1.7 5.2 0.00 0.48 0.00 74 1010.1
20260510174614 68 180 0.9 6.1 0.00 0.48 0.00 78 1010.0
20260510173613 68 186 0.9 3.5 0.00 0.48 0.00 75 1010.0
20260510173100 68 186 0.9 4.3 0.00 0.48 0.00 75 1010.1
20260510171614 68 188 1.7 5.2 0.00 0.48 0.00 75 1010.2
20260510170613 67 252 1.7 6.1 0.00 0.48 0.00 78 1010.3
20260510165613 67 184 0.0 1.7 0.00 0.48 0.00 78 1010.3
20260510164615 66 184 0.9 2.6 0.00 0.48 0.00 79 1010.4
20260510163614 66 184 0.9 6.1 0.00 0.48 0.00 82 1010.5
20260510162611 65 266 0.9 3.5 0.00 0.48 0.00 83 1010.5
20260510161614 64 274 1.7 6.1 0.00 0.48 0.00 85 1010.6
20260510160611 64 186 0.9 4.3 0.00 0.48 0.00 84 1010.6
20260510155612 64 177 1.7 4.3 0.00 0.48 0.00 86 1010.6
20260510154611 63 277 1.7 3.5 0.00 0.48 0.00 86 1010.8
20260510153611 62 166 0.9 4.3 0.00 0.48 0.00 87 1011.0
20260510153055 62 165 0.9 4.3 0.00 0.48 0.00 88 1011.1
20260510151611 61 123 0.9 2.6 0.00 0.48 0.00 90 1011.1
20260510150611 60 113 0.9 2.6 0.00 0.48 0.00 91 1011.1
20260510150052 59 223 0.9 6.1 0.00 0.48 0.00 91 1011.0
20260510145535 58 188 0.9 4.3 0.00 0.48 0.00 92 1011.0
20260510143610 57 169 0.9 3.5 0.00 0.48 0.00 94 1011.0
20260510143045 56 166 0.9 4.3 0.00 0.48 0.00 95 1011.0
20260510141613 56 165 0.9 3.5 0.00 0.48 0.00 95 1011.2
20260510140613 55 122 0.0 1.7 0.00 0.48 0.00 96 1011.2
20260510135613 55 177 0.0 2.6 0.00 0.48 0.00 96 1011.2
20260510134613 55 177 0.0 0.0 0.00 0.48 0.00 96 1011.1
20260510133606 54 177 0.0 0.0 0.00 0.48 0.00 96 1010.9
20260510132605 54 177 0.0 0.0 0.00 0.48 0.00 96 1011.0
20260510131603 54 177 0.0 0.0 0.00 0.48 0.00 96 1011.0
20260510130604 54 177 0.0 0.0 0.00 0.48 0.00 96 1011.1
20260510125605 53 177 0.0 0.0 0.00 0.48 0.00 96 1011.1
20260510125110 53 177 0.0 0.0 0.00 0.48 0.00 96 1010.9
20260510123604 53 177 0.0 0.0 0.00 0.48 0.00 96 1010.9
20260510122605 53 177 0.0 0.0 0.00 0.48 0.00 96 1010.8
20260510121603 53 177 0.0 0.0 0.00 0.49 0.00 96 1010.7
20260510120604 53 177 0.0 0.0 0.00 0.49 0.00 96 1010.7
20260510120046 53 177 0.0 0.0 0.00 0.49 0.00 96 1010.7
20260510114605 52 177 0.0 0.0 0.00 0.49 0.00 96 1010.7
20260510113604 52 177 0.0 0.0 0.00 0.49 0.00 96 1010.3
20260510113042 52 177 0.0 0.0 0.00 0.49 0.00 96 1010.4
20260510111601 52 177 0.0 0.0 0.00 0.49 0.00 96 1010.4
20260510110556 52 177 0.0 0.0 0.00 0.49 0.00 96 1010.2
20260510105554 52 177 0.0 0.0 0.00 0.49 0.00 96 1010.2
20260510104554 51 177 0.0 0.0 0.00 0.49 0.00 96 1010.1
20260510103555 51 177 0.0 0.0 0.00 0.49 0.00 96 1010.0
20260510102555 51 177 0.0 0.0 0.00 0.49 0.00 96 1010.1
20260510101554 51 177 0.0 0.0 0.00 0.49 0.00 96 1009.9
20260510100554 51 177 0.0 0.9 0.00 0.49 0.00 96 1009.5
20260510100519 51 177 0.0 0.0 0.00 0.49 0.00 96 1009.9
20260510095029 51 177 0.0 1.7 0.00 0.49 0.00 95 1010.0
20260510093551 51 177 0.0 0.9 0.00 0.49 0.00 96 1010.0
20260510092549 52 177 0.0 0.0 0.00 0.49 0.00 96 1010.1
20260510091551 52 177 0.0 0.9 0.00 0.49 0.00 96 1009.9
20260510091447 52 177 0.0 0.9 0.00 0.49 0.00 96 1010.1
20260510091122 52 177 0.0 0.9 0.00 0.49 0.00 96 1009.8
20260510085515 52 177 0.0 0.0 0.00 0.50 0.00 96 1010.3
20260510083550 52 177 0.0 0.0 0.00 0.51 0.00 96 1010.1
20260510082549 52 177 0.0 0.9 0.00 0.52 0.00 96 1010.0
20260510081549 52 177 0.0 0.0 0.00 0.53 0.00 95 1009.9
20260510081026 52 177 0.0 0.0 0.00 0.53 0.00 95 1009.8
20260510075547 52 177 0.0 0.0 0.00 0.53 0.00 96 1009.9
20260510075031 52 177 0.0 0.0 0.00 0.53 0.00 96 1009.7
20260510074027 52 177 0.0 0.0 0.00 0.53 0.00 96 1009.7
20260510072549 52 177 0.0 0.0 0.00 0.53 0.00 96 1009.6
20260510071547 53 177 0.0 0.0 0.00 0.53 0.00 95 1009.6
20260510070548 53 177 0.0 0.0 0.00 0.53 0.00 95 1009.6
20260510065547 53 177 0.0 0.0 0.00 0.53 0.00 96 1009.6
20260510064545 53 177 0.0 0.0 0.00 0.53 0.00 96 1009.6
20260510064025 53 177 0.0 0.0 0.00 0.53 0.00 96 1009.7
20260510062545 53 177 0.0 0.0 0.00 0.53 0.00 96 1009.5
20260510061544 53 177 0.0 0.0 0.00 0.53 0.00 96 1009.3
20260510060544 53 177 0.0 0.0 0.00 0.53 0.00 96 1009.3
20260510055545 53 177 0.0 0.0 0.00 0.53 0.00 96 1009.3
20260510054547 53 177 0.0 0.0 0.00 0.53 0.00 96 1009.4
20260510053545 53 177 0.0 0.0 0.00 0.53 0.00 96 1009.5
20260510052545 53 177 0.0 0.9 0.00 0.53 0.00 96 1009.5
20260510051539 53 177 0.0 0.0 0.00 0.53 0.00 96 1009.4
20260510050539 53 177 0.0 0.0 0.00 0.53 0.00 96 1009.6
20260510045539 53 177 0.0 0.0 0.00 0.53 0.00 96 1009.6
20260510044538 53 177 0.0 0.0 0.00 0.53 0.00 95 1009.6
20260510043538 53 177 0.0 0.0 0.00 0.53 0.00 95 1009.6
20260510042536 53 177 0.0 0.0 0.00 0.53 0.00 95 1009.5
20260510041536 53 177 0.0 0.0 0.00 0.53 0.00 95 1009.4
20260510040536 53 177 0.0 0.0 0.00 0.53 0.00 95 1009.3
20260510035538 53 177 0.0 0.0 0.00 0.53 0.53 95 1009.4
20260510034531 53 177 0.0 0.0 0.00 0.53 0.53 95 1009.5
20260510033530 53 177 0.0 0.0 0.00 0.53 0.53 95 1009.5
20260510032530 53 177 0.0 0.0 0.00 0.53 0.53 95 1009.5
20260510031532 53 177 0.0 0.0 0.00 0.53 0.53 95 1009.5
20260510031500 53 177 0.0 0.9 0.00 0.53 0.53 95 1009.6
20260510025531 53 177 0.0 1.7 0.00 0.53 0.53 95 1009.4
20260510024530 53 177 0.0 1.7 0.00 0.53 0.53 95 1009.3
20260510024004 53 177 0.0 1.7 0.00 0.53 0.53 95 1009.2
20260510022531 53 177 0.0 0.9 0.00 0.53 0.53 95 1009.2
20260510021525 53 177 0.0 1.7 0.00 0.53 0.53 95 1009.4
20260510021002 53 177 0.0 1.7 0.00 0.53 0.53 95 1009.5
20260510015524 53 177 0.0 0.0 0.00 0.53 0.53 95 1009.5
20260510014525 53 177 0.0 0.0 0.00 0.53 0.53 95 1009.6
20260510013525 53 177 0.0 0.0 0.00 0.53 0.53 95 1009.5
20260510012525 53 177 0.0 0.9 0.00 0.53 0.53 95 1009.4
20260510011524 53 177 0.0 2.6 0.00 0.53 0.53 95 1009.3
20260510010524 53 76 0.0 0.0 0.00 0.53 0.53 95 1009.1
20260510005525 53 57 0.0 0.0 0.00 0.53 0.53 95 1009.1
20260510004519 53 57 0.0 0.0 0.00 0.53 0.53 95 1009.2
20260510003519 53 57 0.0 0.0 0.00 0.53 0.53 95 1008.9
20260510002519 53 57 0.0 0.0 0.00 0.53 0.53 95 1008.7
20260510001518 53 57 0.0 0.0 0.01 0.53 0.53 95 1008.6
20260510000519 53 57 0.0 0.0 0.01 0.53 0.53 95 1008.6
20260509235948 53 57 0.0 0.0 0.01 0.53 0.53 95 1008.7
20260509234519 53 57 0.0 0.0 0.03 0.53 0.53 95 1008.7
20260509233520 53 57 0.0 0.0 0.04 0.53 0.53 95 1008.8
20260509232520 53 57 0.0 0.0 0.05 0.53 0.53 95 1009.0
20260509231513 53 57 0.0 0.0 0.05 0.52 0.52 95 1009.2
20260509230513 53 57 0.0 0.0 0.07 0.52 0.52 95 1009.2
20260509225953 53 57 0.0 0.0 0.07 0.52 0.52 95 1009.4
20260509224513 53 57 0.0 0.0 0.06 0.50 0.50 95 1009.3
20260509223511 53 57 0.0 0.0 0.06 0.49 0.49 95 1009.2
20260509222510 53 57 0.0 0.0 0.05 0.48 0.48 95 1009.4
20260509221511 53 57 0.0 0.0 0.05 0.47 0.47 95 1009.6
20260509220511 53 57 0.0 0.0 0.03 0.45 0.46 95 1009.7
20260509215510 53 57 0.0 0.0 0.04 0.45 0.45 95 1009.8
20260509214511 53 57 0.0 0.0 0.05 0.44 0.44 95 1009.8
20260509213511 53 57 0.0 0.0 0.05 0.43 0.43 95 1009.6
20260509212506 53 57 0.0 0.0 0.07 0.43 0.43 95 1009.6
20260509211506 53 57 0.0 0.0 0.08 0.42 0.42 94 1009.3
20260509210505 53 57 0.0 0.0 0.10 0.42 0.42 94 1009.3
20260509205504 53 57 0.0 0.0 0.10 0.41 0.41 94 1009.6
20260509204506 53 57 0.0 0.0 0.10 0.39 0.39 94 1009.6
20260509203459 53 57 0.0 0.0 0.15 0.38 0.38 94 1009.8
20260509202501 53 57 0.0 0.0 0.18 0.36 0.36 94 1009.8
20260509201501 53 57 0.0 0.0 0.22 0.34 0.34 94 1009.8
20260509200501 53 57 0.0 1.7 0.23 0.32 0.33 93 1009.9
20260509195459 53 57 0.0 1.7 0.24 0.31 0.31 93 1009.6
20260509194501 53 42 0.0 0.9 0.24 0.29 0.30 93 1009.8
20260509193500 53 42 0.0 0.9 0.18 0.23 0.23 92 1010.0